International Virtual Aviation Organisation

Russian Federation and Kazakhstan MCD

 

Карточка аэропорта USPP

Внимание!
Информация на этой странице в стадии наполнения.
Если вы не увидели какой-то информации, или заметили неточность - пожалуйста сообщите нам!
Спасибо!
Команда RU-STAFF
Название аэропортаБольшое Савино
Название аэропорта (англ.)Bolshoe Savino
Превышение404 ft. (123.1 m.)
Координаты57°55.866', 56°1.6019999999999'
Высота перехода1200m
Эшелон переходаQFE>749:FL60; 749>QFE>722:FL70; 722>QFE: FL80;
Коды ответчика5610-5617
Зона ОрВДЕкатеринбург РПИ (USSS)
Данные METARUSPP 242300Z 14003MPS 9999 BKN026 M00/M02 Q1013 R21/090060 NOSIG RMK QFE749
Проноз погоды (TAF)USPP 241958Z 2421/2521 20003G08MPS 9999 SCT016 TEMPO 2421/2424 3100 BR BECMG 2502/2504 12006G15MPS BECMG 2504/2505 OVC011 BECMG 2509/2511 3100 -RA
NOTAMshow/hide NOTAM
AWOS   TABLE

Информация о ВПП

ВПП Длина ВПП (м.) Покрытие Курс ВПП Частота ILS
213204Железобетон211109.9
033204Железобетон31 

Диспетчерские позиции

Позывной Наименование органа УВД Частота
USPP_TWRПермь-Старт124.000
USPP_APPПермь-Подход127.100



Спутниковое изображение